Wind_Speed
14 22 16 18 22 24 26 12 12 23 25 9 8 12 14 15 14 15 15 15 16 14 12 17 20 25 28 28 26 23 20 16 12 9 6 4 2 4 6 9 11 14 15 18
7 8 16 14 17 19 16 13 22 15 2 5 4 8 8 14 16 16 16 16 15 14 14 17 22 24 28 28 26 22 18 14 11 7 4 3 3 6 8 11 14 15 17 19
6 1 14 8 18 14 18 20 8 2 2 5 4 7 9 12 16 18 17 18 17 17 15 20 24 31 30 29 25 21 17 13 9 6 4 2 5 7 10 13 15 16 18 20
3 5 3 4 3 6 6 7 6 6 3 4 5 6 7 2 11 13 15 15 14 12 17 22 27 29 31 28 24 20 16 12 8 5 3 3 6 9 12 14 16 17 19 19
2 2 4 4 5 3 4 3 6 7 6 5 7 5 6 5 2 6 10 11 13 21 24 27 30 33 31 26 23 19 15 10 6 3 2 4 8 11 12 15 16 18 19 20
3 2 1 2 2 1 1 2 0 3 8 10 6 5 3 3 3 11 11 18 22 24 27 29 29 33 30 25 21 17 13 9 5 3 2 6 8 11 13 15 16 18 20 21
2 2 6 4 2 2 2 4 2 2 7 9 6 1 8 8 10 11 15 22 26 25 25 28 33 31 27 23 18 14 11 8 5 2 4 6 8 12 14 15 17 20 21 22
2 1 5 3 3 2 3 2 2 2 3 10 12 13 12 12 13 14 16 20 23 25 23 29 29 28 24 20 16 13 10 7 4 2 4 6 10 12 14 16 19 21 22 20
7 5 1 3 1 1 2 2 3 5 9 16 15 13 12 11 13 12 15 19 22 26 26 24 23 24 23 18 15 11 9 6 3 2 4 8 10 12 16 19 19 21 17 18
1 2 2 2 2 3 4 4 7 9 12 13 18 12 12 12 11 11 14 18 23 24 21 20 20 19 19 16 12 10 8 4 2 4 6 8 9 13 15 17 18 16 16 18
4 3 0 2 1 5 7 10 12 9 10 14 17 12 13 11 11 10 16 18 22 21 21 21 20 19 15 13 11 9 6 3 3 4 8 10 12 15 14 15 16 19 20 20
5 5 4 2 8 8 11 10 11 15 11 8 12 14 12 10 12 15 16 21 21 22 24 21 19 17 13 10 8 6 4 1 3 7 9 11 15 18 17 13 15 16 17 19
1 4 4 8 7 4 10 9 9 11 13 14 9 12 10 10 11 19 20 21 22 23 22 20 18 15 11 8 6 4 1 3 6 8 11 14 15 16 17 21 16 16 18 20
8 10 7 1 5 9 14 12 13 12 13 12 14 15 15 13 17 17 17 21 22 22 20 18 16 13 10 6 4 2 3 4 7 10 12 13 14 16 18 17 16 19 18 18
5 3 8 13 13 11 13 14 14 11 11 9 14 14 16 10 10 16 19 21 22 21 18 16 14 11 8 5 2 2 4 7 10 11 12 12 14 16 18 18 17 19 21 19
7 9 12 14 13 11 13 11 15 10 9 8 9 13 17 21 21 21 22 23 22 17 16 14 12 10 5 2 1 3 6 9 9 11 12 14 16 19 17 16 17 17 19 21
14 6 10 9 12 12 10 9 11 10 10 10 12 19 23 22 21 20 17 13 15 16 13 12 11 7 3 0 3 6 8 10 10 12 13 14 16 16 17 17 16 17 19 21
5 7 7 16 15 13 10 9 10 12 10 16 19 21 19 16 11 16 16 17 17 14 11 10 7 4 1 2 5 7 9 11 12 13 13 16 16 18 18 16 16 17 20 22
6 13 12 12 12 13 12 10 11 17 19 19 19 15 17 19 21 20 19 17 15 13 10 8 4 2 2 3 6 8 10 11 12 13 15 14 17 18 16 16 17 18 20 20
11 11 16 13 20 20 13 17 20 18 19 24 23 20 17 18 19 18 15 12 8 9 10 5 2 2 3 5 5 10 10 11 12 14 16 15 17 15 16 16 18 20 19 19
13 14 15 15 13 17 20 21 21 18 21 23 20 16 18 19 18 19 19 11 9 8 6 3 2 2 5 5 9 10 10 11 13 15 17 18 18 18 17 19 19 19 20 20
13 14 15 17 15 15 17 23 24 24 22 22 23 23 23 19 18 14 10 14 10 6 4 3 2 4 5 6 9 10 11 13 15 17 18 19 19 20 22 20 20 20 20 22
11 16 19 18 17 17 23 23 22 24 22 22 22 22 19 18 17 15 8 8 7 5 4 4 3 4 5 9 10 11 12 14 17 18 18 19 20 22 22 24 20 21 21 22
18 19 20 22 24 22 13 16 23 23 23 21 20 20 22 20 16 14 14 9 7 5 4 4 4 5 7 9 11 12 14 16 18 17 19 19 20 21 22 20 22 23 24 23
20 20 21 20 15 12 20 24 26 24 25 22 19 16 15 9 8 13 10 9 6 4 3 4 5 7 9 11 12 14 16 17 17 18 21 19 21 23 23 23 23 22 24 26
19 15 15 15 18 19 19 18 17 17 19 18 19 17 17 16 14 11 8 6 4 4 5 6 8 10 12 13 14 17 17 18 20 20 17 19 21 21 21 22 23 25 26 26
19 20 20 17 16 18 19 20 19 16 17 19 20 15 14 12 10 8 6 5 4 5 6 8 10 12 14 14 16 16 18 19 17 16 17 18 20 20 22 23 24 25 26 26
Wind_Direction
249 252 249 178 186 189 198 194 196 245 242 226 177 163 161 150 148 149 154 158 161 158 152 146 143 149 155 155 155 154 148 147 140 133 121 101 71 22 5 358 353 347 344 344
259 181 200 186 194 203 193 195 213 245 36 113 113 101 129 152 155 161 165 165 161 156 150 153 151 149 152 155 155 156 152 146 141 133 123 96 34 7 357 354 350 348 348 346
327 56 172 187 212 184 174 197 193 345 202 156 118 122 156 159 170 171 169 165 164 163 159 152 150 154 154 156 155 156 150 146 141 136 122 63 16 358 352 352 349 346 346 344
302 317 38 307 84 169 145 168 149 146 123 146 148 101 89 15 172 170 168 162 159 151 142 144 148 152 155 154 156 153 148 144 144 135 97 28 1 355 352 347 345 343 341 341
356 316 292 9 3 54 150 238 186 211 130 132 123 87 38 13 120 150 147 147 143 143 137 140 145 153 153 153 152 150 147 146 140 123 72 4 357 353 348 340 339 338 339 340
354 52 62 216 344 335 236 301 35 166 155 153 145 143 222 33 83 99 103 122 124 126 130 134 144 154 150 150 149 147 149 145 144 124 28 4 351 346 342 339 333 335 336 340
323 304 288 256 314 299 99 238 320 270 174 162 157 189 123 105 81 92 106 113 118 124 128 136 150 153 144 148 146 146 147 146 137 89 17 353 344 343 340 338 335 339 340 341
157 269 301 351 2 122 222 38 7 14 95 96 107 101 101 103 103 105 107 108 114 114 119 141 150 149 143 141 144 147 147 139 119 55 6 355 343 341 343 343 342 342 339 335
186 214 260 322 347 58 139 108 67 100 109 119 114 109 106 102 99 99 104 105 113 118 124 140 146 147 142 144 149 147 143 128 103 36 12 352 347 346 345 348 346 339 331 328
112 23 193 206 1 34 46 102 100 107 116 123 120 117 112 108 106 104 103 109 117 119 121 130 142 146 143 145 149 146 138 126 65 12 349 348 353 354 350 347 339 331 328 325
267 271 87 258 172 119 87 101 98 83 109 124 119 117 120 116 115 116 118 121 127 128 130 135 140 138 142 145 150 143 131 99 15 348 343 346 351 357 348 341 335 329 328 329
221 203 162 227 145 134 127 129 123 118 103 88 121 124 123 116 120 123 123 130 128 133 134 138 140 139 142 145 147 135 119 44 350 342 344 346 347 342 348 336 333 331 331 330
236 87 60 105 93 76 115 121 114 114 122 119 109 119 119 120 119 129 131 138 140 146 145 146 144 141 142 142 138 124 86 3 349 344 346 343 341 341 331 339 336 335 333 330
118 111 75 34 137 112 110 104 98 91 95 108 113 112 115 112 122 129 139 148 148 148 147 148 146 143 144 143 137 99 12 355 348 347 342 339 337 336 337 327 324 326 329 329
30 23 118 115 108 107 113 115 104 106 110 96 108 117 121 117 117 128 141 146 144 143 145 149 147 145 147 148 134 21 360 356 346 337 338 334 335 337 336 333 322 319 323 328
71 86 112 117 121 121 117 113 117 118 114 111 110 109 119 125 127 132 138 145 141 146 150 150 149 149 150 144 24 1 357 349 342 335 338 340 341 340 337 331 323 320 321 324
113 99 112 121 139 138 131 128 128 129 123 120 119 123 122 119 121 128 135 144 143 141 146 150 145 145 140 28 356 356 346 340 338 336 342 342 339 338 336 326 321 319 317 322
98 102 135 146 143 129 117 114 118 121 120 125 126 127 126 129 134 135 136 135 129 125 131 137 137 140 123 20 359 344 335 334 339 342 341 341 340 335 334 326 319 317 318 321
117 122 117 119 125 120 120 117 112 117 124 130 129 129 137 138 141 137 135 133 132 129 135 134 138 126 62 32 343 333 334 338 341 343 342 339 338 339 332 325 320 320 318 319
104 111 114 114 122 127 121 121 122 119 130 137 132 126 121 134 138 134 133 116 136 144 139 139 124 72 27 351 338 336 342 345 344 343 344 338 338 330 326 324 324 319 318 318
119 117 113 111 105 108 119 126 126 125 136 139 128 124 125 134 137 136 126 112 116 127 134 124 94 41 8 340 338 349 352 347 344 343 341 338 335 332 325 325 320 318 318 316
127 120 116 114 108 99 108 122 126 128 129 127 126 127 125 126 131 119 124 131 132 138 123 106 65 21 359 335 351 352 349 347 344 342 340 339 334 332 328 323 317 317 316 315
113 114 114 115 117 112 111 118 124 127 123 128 130 132 127 132 133 123 119 131 124 113 104 81 39 18 356 353 354 351 348 346 343 340 335 332 328 328 327 325 320 316 318 318
112 108 105 111 115 112 103 104 119 122 124 126 130 136 135 119 101 110 117 117 114 111 100 53 31 19 351 351 350 349 346 341 335 333 328 325 327 329 328 322 320 322 325 323
111 113 118 115 111 109 115 120 115 116 117 117 118 121 129 132 134 132 128 120 109 101 74 39 18 1 356 353 348 343 337 333 331 324 325 328 327 326 328 328 329 329 321 325
120 118 110 115 125 129 128 126 119 122 120 111 115 117 114 115 121 124 119 114 100 66 34 15 7 359 353 346 338 333 331 331 330 330 327 325 327 329 330 332 332 333 335 332
101 110 109 106 116 130 134 133 131 132 135 131 122 124 121 119 116 116 113 97 70 43 19 6 359 352 343 337 332 332 330 332 331 327 324 329 332 332 333 333 333 333 332 332
Height
692 685 682 671 682 683 684 691 703 686 699 666 657 662 666 671 681 690 698 705 711 717 724 731 738 744 750 756 761 765 769 773 775 778 780 781 782 782 781 781 779 778 776 774
670 651 670 669 672 672 682 693 709 672 656 652 661 665 671 675 681 689 695 702 709 716 723 730 736 744 750 756 761 766 769 773 776 778 780 781 781 781 780 779 778 776 774 771
663 652 662 667 673 658 681 675 667 660 651 654 658 663 671 675 677 682 690 697 704 711 719 728 736 742 749 755 761 766 770 773 776 778 779 780 780 780 779 777 776 774 772 769
671 659 662 642 639 639 645 648 648 652 649 652 657 672 674 676 675 681 687 695 703 711 721 729 736 743 749 756 761 766 770 773 776 778 779 779 779 778 777 776 774 771 769 766
678 676 657 645 645 645 648 650 651 650 657 662 668 668 677 681 677 681 686 695 704 711 719 729 736 743 750 757 762 766 770 773 775 777 778 778 777 777 776 774 771 769 766 763
694 683 667 651 646 644 643 661 649 649 658 662 666 674 678 685 683 686 692 698 706 715 723 730 739 744 751 757 763 767 770 773 775 776 777 776 776 775 774 772 769 766 762 759
686 682 669 649 646 645 655 663 649 649 655 658 660 669 680 687 690 692 696 703 711 718 725 732 740 746 753 758 763 766 770 772 774 775 775 775 774 773 772 769 766 762 758 755
679 682 677 647 646 647 654 655 658 656 659 669 674 679 686 692 695 699 703 711 716 722 731 738 744 748 755 759 764 767 770 772 773 774 774 774 773 771 769 766 762 758 755 751
672 666 656 653 651 651 653 655 660 664 666 669 678 686 692 698 702 707 710 716 722 727 736 743 747 750 755 761 765 768 770 771 773 773 773 772 771 769 765 762 759 756 752 749
662 652 653 654 654 653 654 660 666 669 671 674 682 691 698 703 709 714 718 723 728 733 740 746 751 754 757 761 765 767 769 771 771 772 772 770 769 766 763 760 757 753 750 746
662 655 657 656 656 660 664 667 670 675 678 682 686 697 701 708 714 718 723 728 732 737 742 748 752 756 760 763 765 767 769 770 771 771 769 768 766 763 761 759 756 752 748 744
654 645 648 651 658 662 666 671 674 676 685 690 691 697 705 711 716 721 726 731 736 741 745 750 754 758 762 764 766 767 769 770 770 769 767 765 763 761 760 757 754 750 746 742
643 646 654 656 661 664 669 675 678 682 687 693 700 702 708 713 719 724 729 733 738 743 748 752 756 759 762 765 767 768 769 769 768 767 765 763 761 759 756 752 750 747 743 739
648 650 660 659 665 670 672 679 683 688 693 697 702 707 711 716 723 727 732 737 741 746 750 754 758 761 763 765 767 768 768 768 767 765 764 762 760 757 754 750 745 742 740 737
653 650 651 662 669 675 678 682 689 695 700 705 708 711 716 721 727 732 736 740 744 748 753 756 759 763 765 766 767 768 768 767 765 764 763 761 758 755 751 747 743 739 735 732
661 661 662 667 675 680 683 689 692 701 704 709 712 717 722 725 730 735 739 743 746 750 754 758 761 764 765 766 767 767 766 765 765 763 761 758 756 753 749 745 742 738 734 729
661 674 675 678 679 683 686 691 695 701 707 711 717 721 726 731 736 740 744 748 750 753 756 759 762 764 766 766 766 766 766 765 764 762 759 757 753 750 747 744 741 737 732 728
652 657 662 665 675 684 692 696 700 704 710 716 720 725 730 733 738 742 746 749 752 756 759 761 763 765 766 766 765 766 765 763 761 759 756 753 751 748 745 742 739 735 730 725
657 661 668 674 680 686 694 700 704 709 714 719 724 729 733 737 741 745 748 751 755 758 761 762 764 765 765 765 766 765 763 761 758 756 754 751 748 746 743 740 737 732 728 723
664 667 672 679 685 689 697 704 708 713 719 723 728 733 737 741 745 748 752 755 758 760 762 764 764 764 765 765 764 763 761 759 757 754 752 750 747 743 741 738 734 730 725 721
669 673 677 683 690 696 701 706 711 717 724 728 731 736 740 744 748 751 755 757 761 762 763 764 764 764 765 764 763 761 759 757 755 752 750 747 744 741 738 735 731 727 723 718
672 676 682 689 695 704 709 712 717 722 727 732 736 739 743 748 751 755 757 758 762 763 763 763 764 765 764 762 760 759 757 755 753 750 747 745 742 739 735 732 728 724 719 715
678 683 688 694 701 709 715 719 723 726 731 735 739 743 746 750 753 756 759 762 762 763 763 764 764 763 761 760 758 757 755 752 750 747 745 743 740 736 732 729 725 720 716 712
684 691 697 703 708 713 719 726 728 732 735 740 744 747 749 752 757 758 760 762 763 763 763 763 763 762 759 758 756 755 753 751 748 745 742 740 736 733 729 726 721 717 713 708
692 698 703 708 714 721 725 729 733 738 741 745 749 751 754 755 756 760 761 762 763 763 763 762 761 760 758 757 755 754 751 748 745 742 739 736 733 730 726 722 717 714 710 705
698 705 710 714 718 724 728 733 737 742 745 749 752 755 755 757 759 760 762 762 763 763 762 761 760 758 757 755 753 751 749 745 742 739 737 734 730 726 722 718 714 710 706 701
706 710 715 721 726 729 733 736 739 744 747 750 753 757 758 760 761 762 763 763 762 762 761 759 758 757 755 753 751 748 745 742 739 736 733 730 727 723 719 715 711 707 702 698